Location: Arroyo Batán
(40.5833°N, 4.1000°W)
Time: 00:19:08
(UTC+00:00)

Daily predictions for brighter satellites

Satellite Brightness Start Highest point End
(mag) Time Altitude Azimuth Time Altitude Azimuth Time Altitude Azimuth
ATLAS 2AS CENTAUR R/B 4.1 03:09:31 28° NNW 03:09:31 28° NNW 03:14:23 10° NNE
ATLAS 3B R/B 4.4 03:14:59 23° SSE 03:14:59 23° SSE 03:17:24 10° SSE
CZ-2C R/B 4.0 03:15:52 10° NNE 03:19:53 46° NNE 03:19:53 46° NNE
Cosmos 1867 4.1 03:33:23 57° NE 03:33:34 57° NE 03:38:55 10° SE
GP-B 4.3 03:38:17 39° E 03:38:22 39° E 03:42:29 10° NNE
Sich 1 4.4 03:36:15 10° N 03:40:18 38° ENE 03:41:10 34° ESE
Meteor 1-10 Rocket 4.4 03:44:44 56° SE 03:45:42 66° E 03:51:12 10° NNE
BlueWalker 3 3.8 03:48:24 30° E 03:48:24 30° E 03:50:39 10° ESE
NOSS 3-1 (A) 4.0 03:43:24 21° NW 03:49:02 77° WSW 03:58:06 10° SSE
ADEOS II 4.4 03:46:59 10° NNW 03:47:29 12° NNW 03:47:29 12° NNW
IRS-1D 3.7 03:49:30 10° N 03:54:06 65° NNW 03:54:06 65° NNW
USA 281 4.1 03:49:10 10° N 03:54:08 32° NW 03:54:08 32° NW
Envisat 3.0 03:51:56 10° NNE 03:57:02 76° ESE 03:57:47 63° SSE
Cosmos 2297 Rocket 3.0 03:55:04 25° SSE 03:58:06 47° ESE 04:03:30 10° NE
Cosmos 1125 Rocket 4.3 04:06:13 37° NNW 04:06:13 37° NNW 04:09:57 10° N
Lacrosse 5 rocket 3.6 04:06:40 15° N 04:06:40 15° N 04:08:01 10° NNE
Cosmos 1536 3.6 04:04:29 10° N 04:07:16 43° NNE 04:07:16 43° NNE
Cosmos 2237 Rocket 3.4 04:05:31 10° N 04:10:54 42° ENE 04:16:14 10° SE
Nadezhda 2 Rocket 4.4 04:08:39 38° SSW 04:11:17 73° W 04:17:44 10° N
METEOR-M 4.1 04:08:28 10° N 04:13:43 58° WNW 04:13:57 58° W
Okean 1 3.7 04:16:05 38° SSE 04:17:18 58° E 04:21:06 10° NNE
YAOGAN 11 4.0 04:14:52 10° S 04:19:22 77° WSW 04:23:51 10° NNW
Cosmos 2322 3.9 04:25:42 44° WSW 04:25:42 44° WSW 04:30:34 10° S
H-2A R/B 4.3 04:22:21 10° NNE 04:25:31 32° E 04:28:39 10° SSE
Cosmos 2344 4.2 04:19:56 10° S 04:27:33 52° ESE 04:34:34 10° NE
COBE Rocket 3.8 04:24:36 10° N 04:29:28 73° WNW 04:32:19 26° SSW
SL-08 R/B 4.4 04:25:53 21° SSW 04:30:02 65° W 04:36:06 10° N
PAYLOAD A 4.2 04:26:53 10° N 04:31:35 46° WNW 04:32:20 43° W
Cosmos 1151 Rocket 2.9 04:31:38 40° SSW 04:33:04 69° W 04:37:26 10° N
Nadezhda 1 Rocket 4.0 04:27:20 10° N 04:33:39 81° E 04:39:48 10° S
COSMOS 2428 2.8 04:28:27 10° NW 04:33:55 49° WSW 04:39:21 10° S
NOSS 0 Rocket 3.8 04:28:33 10° NNW 04:34:49 79° WSW 04:41:02 10° SSE
CBERS-1 3.9 04:30:09 10° N 04:35:15 69° WNW 04:38:47 20° SSW
CZ-2C R/B 3.0 04:32:10 10° N 04:36:09 34° WNW 04:36:09 34° WNW
ALOS 4.4 04:34:06 10° NNW 04:34:42 12° NW 04:34:42 12° NW
USA 215 3.2 04:36:36 10° SE 04:43:09 89° NE 04:49:45 10° NW
BREEZE-M DEB (TANK) 3.5 04:42:21 32° WNW 04:44:04 52° N 04:56:48 10° ENE
Cosmos 1328 Rocket 3.8 04:39:50 10° S 04:44:13 72° E 04:48:36 10° NNE
Cosmos 2227 Rocket 2.6 04:39:15 10° S 04:44:50 66° ESE 04:50:28 10° NNE
Cosmos 44 Rocket 3.5 04:43:55 33° WSW 04:45:56 56° NW 04:51:02 10° NNE
Cosmos 1666 Rocket 3.6 04:42:29 10° N 04:46:52 81° E 04:51:11 10° S
ARIANE 5 R/B 2.9 04:43:31 10° NNE 04:48:30 63° ESE 04:53:25 10° S
Cosmos 1386 Rocket 4.4 04:42:37 10° SSW 04:48:53 65° W 04:55:04 10° N
Meteor 1-27 Rocket 3.8 04:47:05 12° SSW 04:52:12 53° WNW 04:57:48 10° N
DMSP B5D2-2 4.0 04:48:25 10° S 04:53:39 73° WSW 04:58:57 10° NNW
Meteor 2-20 4.4 04:50:09 10° NNW 04:56:15 64° W 05:02:17 10° S
Helios 1A 2.8 04:54:09 10° SSE 04:58:15 85° WSW 05:02:21 10° NNW
CZ-2D R/B 4.4 04:54:30 10° NNE 04:58:46 53° E 05:03:02 10° S
Meteor 1-19 Rocket 4.2 04:56:17 10° SSW 05:01:46 56° WNW 05:07:08 10° N
Cosmos 1709 Rocket 4.0 04:58:32 10° S 05:04:55 84° W 05:11:19 10° N
Cosmos 1269 Rocket 3.9 05:00:47 10° NNW 05:06:05 81° WSW 05:11:20 10° SSE
IRS-P3 4.2 05:01:57 10° NNE 05:07:19 85° ESE 05:12:39 10° SSW
Cosmos 1805 4.4 05:07:13 10° N 05:10:52 45° E 05:14:29 10° SSE
Cosmos 614 Rocket 4.0 05:06:19 10° NNW 05:11:22 59° WSW 05:16:27 10° S
Meteor 2-4 Rocket 3.9 05:06:02 10° S 05:11:57 84° E 05:17:48 10° N
Cosmos 1633 Rocket 3.1 05:11:06 10° NNW 05:15:26 59° W 05:19:46 10° S
Cosmos 1980 3.8 05:11:23 10° NNW 05:16:52 53° WSW 05:22:21 10° S
ATLAS CENTAUR R/B 3.3 05:14:07 10° N 05:17:05 24° NE 05:20:03 10° ESE
Cosmos 1484 Rocket 3.6 05:14:09 10° NNW 05:17:14 26° WNW 05:19:36 14° WSW
Sich 1 4.5 05:14:41 10° NW 05:17:29 17° W 05:17:37 17° W
Cosmos 1745 Rocket 4.4 05:13:11 10° SSW 05:19:08 43° WNW 05:25:11 10° N
Meteor 1-18 Rocket 4.3 05:17:18 10° S 05:23:11 84° W 05:29:00 10° N
USA 229 DEB 4.4 05:16:27 10° NW 05:23:30 42° WSW 05:30:56 10° S
USA 229 4.4 05:16:33 10° NW 05:23:35 42° WSW 05:31:01 10° S
H-2A R/B 2.2 05:19:10 10° NNE 05:24:38 89° WNW 05:30:00 10° SSW
BlueWalker 3 3.1 05:23:04 16° W 05:25:13 25° SW 05:28:24 10° S
PSLV R/B 4.3 05:28:20 10° NNE 05:32:25 55° E 05:36:27 10° S
SKYMED 2 3.6 05:30:15 10° SSE 05:34:35 89° E 05:38:57 10° NNW
Cosmos 1939 Rocket 3.0 05:37:07 10° N 05:40:51 48° WNW 05:44:38 10° SSW
Cosmos 2297 Rocket 3.2 05:37:43 10° WSW 05:42:21 26° NW 05:47:01 10° N
Cosmos 2074 Rocket 4.4 05:39:25 10° S 05:45:34 71° E 05:51:45 10° NNE
Cosmos 2219 3.4 05:46:52 10° SW 05:52:25 55° WNW 05:57:58 10° NNE
